When you browse on this site, cookies collect data to enhance your experience and personalize the content and advertising you see.
Visit our Privacy Policy to learn more. By continuing to use the site, you agree to this use of cookies and data.
  • în România
  • Lista ţărilor
  • Pe 7 zile
  • Temperatura apei
  • Meteo pe hartă
  • Widget-uri
  • user-avatar
    Intrare

    Meteo pe oră la Las-Vegas

    Astăzi, 19 Februarie, Miercuri

    Timp Temperatura Precipitaţii Vânt Presiune Umiditate
    00:00 +9°C° 0 mm 0 m/s 708 mmHg 32%
    01:00 +9°C° 0 mm 0 m/s 708 mmHg 32%
    02:00 +9°C° 0 mm 0 m/s 708 mmHg 32%
    03:00 +8°C° 0 mm 0 m/s 708 mmHg 33%
    04:00 +8°C° 0 mm 0 m/s 708 mmHg 33%
    05:00 +9°C° 0 mm 1 m/s 708 mmHg 33%
    06:00 +9°C° 0 mm 1 m/s 709 mmHg 33%
    07:00 +9°C° 0 mm 1 m/s 709 mmHg 33%
    08:00 +11°C° 0 mm 1 m/s 710 mmHg 28%
    09:00 +13°C° 0 mm 1 m/s 710 mmHg 24%
    10:00 +15°C° 0 mm 1 m/s 711 mmHg 20%
    11:00 +16°C° 0 mm 2 m/s 710 mmHg 20%
    12:00 +16°C° 0 mm 2 m/s 710 mmHg 19%
    13:00 +17°C° 0 mm 2 m/s 710 mmHg 19%
    14:00 +17°C° 0 mm 2 m/s 710 mmHg 18%
    15:00 +18°C° 0 mm 2 m/s 710 mmHg 18%
    16:00 +18°C° 0 mm 2 m/s 710 mmHg 18%
    17:00 +17°C° 0 mm 2 m/s 710 mmHg 21%
    18:00 +16°C° 0 mm 2 m/s 711 mmHg 23%
    19:00 +14°C° 0 mm 2 m/s 711 mmHg 26%
    20:00 +14°C° 0 mm 2 m/s 711 mmHg 28%
    21:00 +13°C° 0 mm 2 m/s 712 mmHg 29%
    22:00 +12°C° 0 mm 2 m/s 713 mmHg 31%
    23:00 +10°C° 0 mm 2 m/s 713 mmHg 32%

    Mâine, 20 Februarie, Joi

    Timp Temperatura Precipitaţii Vânt Presiune Umiditate
    00:00 +10°C° 0 mm 2 m/s 713 mmHg 32%
    01:00 +9°C° 0 mm 2 m/s 713 mmHg 33%
    02:00 +9°C° 0 mm 2 m/s 713 mmHg 34%
    03:00 +8°C° 0 mm 2 m/s 713 mmHg 36%
    04:00 +8°C° 0 mm 2 m/s 713 mmHg 37%
    05:00 +7°C° 0 mm 2 m/s 714 mmHg 37%
    06:00 +7°C° 0 mm 2 m/s 714 mmHg 37%
    07:00 +7°C° 0 mm 2 m/s 714 mmHg 37%
    08:00 +9°C° 0 mm 2 m/s 714 mmHg 32%
    09:00 +10°C° 0 mm 3 m/s 715 mmHg 27%
    10:00 +12°C° 0 mm 3 m/s 715 mmHg 23%
    11:00 +13°C° 0 mm 3 m/s 714 mmHg 22%
    12:00 +14°C° 0 mm 3 m/s 714 mmHg 21%
    13:00 +16°C° 0 mm 3 m/s 713 mmHg 20%
    14:00 +16°C° 0 mm 3 m/s 713 mmHg 20%
    15:00 +16°C° 0 mm 3 m/s 713 mmHg 20%
    16:00 +17°C° 0 mm 3 m/s 712 mmHg 20%
    17:00 +16°C° 0 mm 2 m/s 712 mmHg 23%
    18:00 +15°C° 0 mm 2 m/s 713 mmHg 26%
    19:00 +14°C° 0 mm 1 m/s 713 mmHg 29%
    20:00 +13°C° 0 mm 1 m/s 713 mmHg 29%
    21:00 +13°C° 0 mm 1 m/s 713 mmHg 30%
    22:00 +12°C° 0 mm 1 m/s 713 mmHg 31%

    Poimâine, 21 Februarie, Vineri

    Timp Temperatura Precipitaţii Vânt Presiune Umiditate
    05:00 +10°C° 0 mm 1 m/s 712 mmHg 33%
    06:00 +10°C° 0 mm 1 m/s 712 mmHg 33%
    07:00 +10°C° 0 mm 1 m/s 712 mmHg 34%
    08:00 +12°C° 0 mm 2 m/s 712 mmHg 30%
    09:00 +13°C° 0 mm 2 m/s 712 mmHg 25%
    10:00 +15°C° 0 mm 2 m/s 713 mmHg 21%
    11:00 +16°C° 0 mm 2 m/s 712 mmHg 21%
    12:00 +17°C° 0 mm 2 m/s 711 mmHg 20%
    13:00 +18°C° 0 mm 2 m/s 711 mmHg 19%
    14:00 +18°C° 0 mm 2 m/s 710 mmHg 19%
    15:00 +18°C° 0 mm 2 m/s 710 mmHg 19%
    16:00 +19°C° 0 mm 2 m/s 709 mmHg 19%
    17:00 +19°C° 0 mm 1 m/s 709 mmHg 22%
    18:00 +18°C° 0 mm 1 m/s 709 mmHg 26%
    19:00 +15°C° 0 mm 1 m/s 709 mmHg 29%
    20:00 +15°C° 0 mm 1 m/s 709 mmHg 30%
    21:00 +14°C° 0 mm 1 m/s 708 mmHg 30%
    22:00 +14°C° 0 mm 1 m/s 708 mmHg 31%
    23:00 +14°C° 0 mm 1 m/s 708 mmHg 32%

    22 Februarie, Sâmbătă

    Timp Temperatura Precipitaţii Vânt Presiune Umiditate
    00:00 +13°C° 0 mm 1 m/s 707 mmHg 32%
    01:00 +13°C° 0 mm 1 m/s 707 mmHg 33%
    02:00 +13°C° 0.2 mm 1 m/s 706 mmHg 36%
    03:00 +13°C° 0.2 mm 1 m/s 706 mmHg 39%
    04:00 +14°C° 0.2 mm 1 m/s 706 mmHg 42%
    05:00 +13°C° 0.7 mm 1 m/s 706 mmHg 50%
    06:00 +12°C° 0.7 mm 2 m/s 706 mmHg 58%
    07:00 +10°C° 0.7 mm 2 m/s 706 mmHg 67%
    08:00 +10°C° 2.4 mm 2 m/s 706 mmHg 73%
    09:00 +9°C° 2.4 mm 2 m/s 706 mmHg 79%
    10:00 +9°C° 2.4 mm 2 m/s 706 mmHg 85%
    11:00 +9°C° 2 mm 2 m/s 706 mmHg 85%
    12:00 +8°C° 2 mm 3 m/s 706 mmHg 85%
    13:00 +8°C° 2 mm 3 m/s 705 mmHg 86%
    14:00 +8°C° 0.4 mm 3 m/s 705 mmHg 84%
    15:00 +9°C° 0.4 mm 3 m/s 706 mmHg 82%
    16:00 +9°C° 0.4 mm 3 m/s 706 mmHg 80%
    17:00 +9°C° 0.2 mm 3 m/s 706 mmHg 79%
    18:00 +9°C° 0.2 mm 2 m/s 707 mmHg 78%
    19:00 +10°C° 0.2 mm 2 m/s 707 mmHg 77%
    20:00 +9°C° 0 mm 2 m/s 708 mmHg 78%
    21:00 +9°C° 0 mm 2 m/s 708 mmHg 78%
    22:00 +10°C° 0 mm 1 m/s 709 mmHg 78%
    23:00 +9°C° 0 mm 1 m/s 709 mmHg 78%

    23 Februarie, Duminică

    Timp Temperatura Precipitaţii Vânt Presiune Umiditate
    00:00 +9°C° 0 mm 1 m/s 709 mmHg 79%
    01:00 +9°C° 0 mm 1 m/s 710 mmHg 79%
    02:00 +8°C° 0 mm 1 m/s 710 mmHg 81%
    03:00 +8°C° 0 mm 1 m/s 710 mmHg 83%
    04:00 +8°C° 0 mm 1 m/s 710 mmHg 85%
    05:00 +7°C° 0 mm 0 m/s 711 mmHg 85%
    06:00 +7°C° 0 mm 0 m/s 711 mmHg 85%
    07:00 +7°C° 0 mm 0 m/s 711 mmHg 86%
    08:00 +9°C° 0 mm 1 m/s 712 mmHg 79%
    09:00 +11°C° 0 mm 1 m/s 712 mmHg 73%
    10:00 +12°C° 0 mm 1 m/s 712 mmHg 67%
    11:00 +13°C° 0 mm 1 m/s 712 mmHg 62%
    12:00 +14°C° 0 mm 1 m/s 712 mmHg 57%
    13:00 +15°C° 0 mm 1 m/s 711 mmHg 53%
    14:00 +16°C° 0 mm 1 m/s 711 mmHg 51%
    15:00 +16°C° 0 mm 1 m/s 711 mmHg 48%
    16:00 +18°C° 0 mm 1 m/s 711 mmHg 46%
    17:00 +16°C° 0 mm 1 m/s 711 mmHg 50%
    18:00 +14°C° 0 mm 0 m/s 711 mmHg 54%
    19:00 +13°C° 0 mm 0 m/s 711 mmHg 58%
    20:00 +13°C° 0 mm 0 m/s 711 mmHg 57%
    21:00 +13°C° 0 mm 0 m/s 711 mmHg 57%
    22:00 +12°C° 0 mm 0 m/s 711 mmHg 56%
    23:00 +12°C° 0 mm 0 m/s 710 mmHg 56%

    24 Februarie, Luni

    Timp Temperatura Precipitaţii Vânt Presiune Umiditate
    00:00 +12°C° 0 mm 0 m/s 710 mmHg 56%
    01:00 +11°C° 0 mm 0 m/s 709 mmHg 55%
    02:00 +11°C° 0 mm 0 m/s 709 mmHg 56%
    03:00 +11°C° 0 mm 0 m/s 709 mmHg 57%
    04:00 +10°C° 0 mm 0 m/s 708 mmHg 58%
    05:00 +11°C° 0 mm 1 m/s 708 mmHg 58%
    06:00 +11°C° 0 mm 1 m/s 708 mmHg 57%
    07:00 +11°C° 0 mm 1 m/s 708 mmHg 57%
    08:00 +13°C° 0 mm 2 m/s 708 mmHg 51%
    09:00 +14°C° 0 mm 2 m/s 709 mmHg 46%
    10:00 +16°C° 0 mm 3 m/s 709 mmHg 40%
    11:00 +15°C° 0 mm 5 m/s 708 mmHg 35%
    12:00 +15°C° 0 mm 6 m/s 708 mmHg 30%
    13:00 +15°C° 0 mm 8 m/s 707 mmHg 26%
    14:00 +13°C° 0 mm 9 m/s 707 mmHg 25%
    15:00 +12°C° 0 mm 10 m/s 707 mmHg 24%
    16:00 +11°C° 0 mm 10 m/s 706 mmHg 23%
    17:00 +9°C° 0 mm 10 m/s 707 mmHg 23%
    18:00 +7°C° 0 mm 10 m/s 708 mmHg 23%
    19:00 +6°C° 0 mm 10 m/s 709 mmHg 23%
    20:00 +5°C° 0 mm 10 m/s 709 mmHg 24%
    21:00 +3°C° 0 mm 9 m/s 710 mmHg 25%
    22:00 +2°C° 0 mm 8 m/s 710 mmHg 26%
    23:00 +3°C° 0 mm 7 m/s 710 mmHg 27%
    Arată mai mult